{"data":{"norad_id":50993,"epoch":"2026-09-20T14:26:35.784384Z","epoch_age_seconds":104200,"freshness":"FRESH","line1":"1 50993U 22002K   26263.60180306  .00003028  00000+0  10277-3 0  9997","line2":"2 50993  97.2735 319.4650 0007660  26.9682 333.1956 15.31247434259898","mean_motion":15.31247434,"eccentricity":0.000766,"inclination_deg":97.2735,"raan_deg":319.465,"arg_perigee_deg":26.9682,"mean_anomaly_deg":333.1956,"bstar":0.00010277,"rev_number":25989,"period_min":94.040973916172,"perigee_km":466.84212975666,"apogee_km":477.33667660633,"semimajor_km":6850.2264031815,"source":"CELESTRAK","updated_at":"2026-09-21T09:00:08.224333Z"}}